Location: Unspecified
(0.0000°N, 0.0000°E)
Time: 11:50:12
(UTC+02:00)

Amateur Radio Satellites - All Passes

Search period start: 22 August 2014 11:20
Search period end: 23 August 2014 11:20
Location: Unspecified, 0.0000°N, 0.0000°E

Satellite Date Start Highest point End Downlink Frequencies (MHz)
Time Altitude Azimuth
ISS 22 Aug 11:53:27 11:55:41 17° 126° (SE) 11:57:54 145.800 FM
HO-68 22 Aug 12:06:50 12:11:18 18° 285° (WNW) 12:15:47 435.675 MHz FM
PANSAT 22 Aug 12:19:51 12:23:13 27° 151° (SSE) 12:26:33 not established
KITSAT 1 22 Aug 12:39:57 12:47:24 42° 70° (ENE) 12:54:50 435.175 FM
FUNcube-1 22 Aug 12:43:58 12:47:44 26° 281° (WNW) 12:51:33 145.950 - 145.970 MHz USB
Saudisat 1A 22 Aug 12:53:28 12:57:51 84° 248° (WSW) 13:02:14 436.775 MHz
ISS 22 Aug 13:30:16 13:32:13 15° 306° (NW) 13:34:09 145.800 FM
PANSAT 22 Aug 13:59:43 14:03:20 38° 330° (NNW) 14:06:56 not established
Oscar 16 22 Aug 14:26:56 14:30:53 23° 77° (ENE) 14:34:48 437.025 USB, Beacon 2401.1428
KITSAT 1 22 Aug 14:36:17 14:42:28 25° 249° (WSW) 14:48:41 435.175 FM
JAS-1B 22 Aug 14:37:49 14:43:44 18° 74° (ENE) 14:49:45 435.800 - 435.900 CW/SSB
Oscar 19 22 Aug 15:31:47 15:36:48 58° 258° (WSW) 15:41:50 437.125 CW, 437.150 USB
AO-Echo 22 Aug 15:34:44 15:39:59 62° 78° (ENE) 15:45:07 ?
MaSat-1 22 Aug 15:41:11 15:44:56 63° 288° (WNW) 15:49:17 437.345 MHz
ITAMSAT 1 22 Aug 15:42:32 15:47:42 66° 77° (ENE) 15:52:50 435.822 SSB
Gurwin Techsat 1B 22 Aug 15:44:36 15:48:47 24° 77° (ENE) 15:52:56 435.225 FM
Uribyol 2 22 Aug 15:54:57 16:00:09 81° 257° (WSW) 16:05:18 436.500 FM
Oscar 16 22 Aug 16:06:07 16:09:57 22° 257° (WSW) 16:13:47 437.025 USB, Beacon 2401.1428
AO-27 22 Aug 16:09:01 16:14:09 57° 257° (WSW) 16:19:14 436.795 MHz FM
JAS-1B 22 Aug 16:24:17 16:33:28 72° 256° (WSW) 16:43:21 435.800 - 435.900 CW/SSB
AO-7 22 Aug 16:24:44 16:25:01 10° 72° (ENE) 16:25:18 29.400 - 29.500 MHz
TMSAT-1 22 Aug 16:41:12 16:46:30 78° 78° (ENE) 16:51:47 436.925 FM
SO-50 22 Aug 16:43:11 16:45:00 12° 67° (ENE) 16:46:50 436.795 FM
Gurwin Techsat 1B 22 Aug 17:24:27 17:28:28 22° 257° (WSW) 17:32:29 435.225 FM
OPAL 22 Aug 17:27:57 17:32:34 33° 104° (ESE) 17:37:11 ?
Uosat F 22 Aug 17:55:37 18:00:41 81° 77° (ENE) 18:05:42 435.120 FM
Sapphire 22 Aug 18:02:43 18:06:15 18° 110° (ESE) 18:09:47 437.095 MHz 1200 baud AX-25 AFSK
AO-7 22 Aug 18:08:55 18:17:18 85° 254° (WSW) 18:25:40 29.400 - 29.500 MHz
SO-50 22 Aug 18:20:53 18:25:21 37° 248° (WSW) 18:29:49 436.795 FM
JAS-2 22 Aug 18:30:07 18:34:23 16° 79° (E) 18:38:25 435.800 - 435.900 CW/SSB, 435.910 FM
PCSat 22 Aug 18:31:38 18:36:44 43° 109° (ESE) 18:41:49 145.825 MHz
Hamsat 22 Aug 18:46:49 18:49:15 15° 78° (ENE) 18:51:42 145.90 MHz
OPAL 22 Aug 19:08:09 19:11:10 16° 285° (WNW) 19:14:10 ?
UOSAT-12 22 Aug 19:32:06 19:36:40 68° 68° (ENE) 19:41:10 437.025 FM, 437.400 FM
Sapphire 22 Aug 19:44:45 19:49:24 30° 289° (WNW) 19:54:04 437.095 MHz 1200 baud AX-25 AFSK
JAS-2 22 Aug 20:11:53 20:19:16 54° 256° (WSW) 20:25:58 435.800 - 435.900 CW/SSB, 435.910 FM
PCSat 22 Aug 20:18:00 20:19:54 12° 290° (WNW) 20:21:47 145.825 MHz
Hamsat 22 Aug 20:21:49 20:24:57 20° 259° (WSW) 20:28:06 145.90 MHz
STRAND 1 22 Aug 20:34:41 20:39:45 77° 283° (WNW) 20:44:53 ?
RS-15 22 Aug 20:37:14 20:48:15 53° 70° (ENE) 20:59:44 29.354 - 29.394 USB, Beacon 29.352 USB
SO-67 22 Aug 21:15:56 21:18:56 28° 259° (W) 21:21:56 435.3500 MHz FM
HO-68 22 Aug 22:09:00 22:15:38 41° 75° (ENE) 22:22:12 435.675 MHz FM
RS-15 22 Aug 22:51:02 23:00:20 28° 247° (WSW) 23:10:03 29.354 - 29.394 USB, Beacon 29.352 USB
UKube-1 22 Aug 23:01:40 23:06:02 79° 78° (ENE) 23:10:23 145.840 MHz, 145.915 MHz
Oscar 11 22 Aug 23:17:33 23:21:50 67° 78° (ENE) 23:26:06 145.825 FM, Beacon 2401.500 USB
FUNcube-1 22 Aug 23:19:40 23:22:34 18° 79° (ENE) 23:25:27 145.950 - 145.970 MHz USB
ISS 22 Aug 23:30:15 23:31:22 11° 54° (NE) 23:32:29 145.800 FM
HO-68 22 Aug 23:57:49 00:02:59 22° 255° (WSW) 00:08:09 435.675 MHz FM
PANSAT 23 Aug 00:07:18 00:10:39 28° 30° (NNE) 00:14:01 not established
AO-40 23 Aug 00:31:17 02:32:13 21° 90° (E) 03:38:57 Beacon 2401.320
KITSAT 1 23 Aug 00:47:36 00:55:28 54° 110° (ESE) 01:03:17 435.175 FM
FUNcube-1 23 Aug 00:56:07 00:58:43 16° 258° (WSW) 01:01:18 145.950 - 145.970 MHz USB
Saudisat 1A 23 Aug 00:59:45 01:04:01 52° 292° (WNW) 01:08:17 436.775 MHz
ISS 23 Aug 01:05:13 01:07:54 22° 234° (SW) 01:10:35 145.800 FM
PANSAT 23 Aug 01:47:12 01:50:46 36° 210° (SSW) 01:54:21 not established
Oscar 19 23 Aug 02:27:35 02:31:32 22° 103° (ESE) 02:35:28 437.125 CW, 437.150 USB
ITAMSAT 1 23 Aug 02:42:50 02:43:31 10° 103° (ESE) 02:44:11 435.822 SSB
KITSAT 1 23 Aug 02:45:23 02:50:33 18° 291° (WNW) 02:55:45 435.175 FM
Uribyol 2 23 Aug 02:52:35 02:55:48 17° 103° (ESE) 02:59:01 436.500 FM
JAS-1B 23 Aug 02:53:18 02:53:52 10° 102° (ESE) 02:54:26 435.800 - 435.900 CW/SSB
Oscar 16 23 Aug 02:59:39 03:04:45 60° 102° (ESE) 03:09:51 437.025 USB, Beacon 2401.1428
AO-27 23 Aug 03:06:00 03:10:03 23° 103° (ESE) 03:14:07 436.795 MHz FM
MaSat-1 23 Aug 03:34:35 03:38:18 57° 254° (WSW) 03:41:28 437.345 MHz
TMSAT-1 23 Aug 03:42:18 03:44:58 14° 103° (ESE) 03:47:39 436.925 FM
AO-Echo 23 Aug 04:04:21 04:08:56 56° 282° (WNW) 04:13:37 ?
Oscar 19 23 Aug 04:06:37 04:10:35 23° 283° (WNW) 04:14:34 437.125 CW, 437.150 USB
ITAMSAT 1 23 Aug 04:17:46 04:22:42 46° 283° (WNW) 04:27:40 435.822 SSB
Gurwin Techsat 1B 23 Aug 04:22:00 04:27:15 69° 102° (ESE) 04:32:32 435.225 FM
Uribyol 2 23 Aug 04:30:30 04:34:59 30° 283° (WNW) 04:39:30 436.500 FM
JAS-1B 23 Aug 04:38:37 04:44:26 46° 284° (WNW) 04:49:51 435.800 - 435.900 CW/SSB
AO-27 23 Aug 04:45:26 04:49:18 21° 283° (WNW) 04:53:11 436.795 MHz FM
AO-7 23 Aug 04:45:45 04:51:14 20° 107° (ESE) 04:56:41 29.400 - 29.500 MHz
Uosat F 23 Aug 04:50:55 04:51:51 11° 103° (ESE) 04:52:47 435.120 FM
SO-50 23 Aug 04:55:13 04:58:25 20° 112° (ESE) 05:01:37 436.795 FM
TMSAT-1 23 Aug 05:19:48 05:24:36 36° 282° (WNW) 05:29:26 436.925 FM
OPAL 23 Aug 05:59:20 06:04:17 80° 76° (ENE) 06:09:15 ?
Uosat F 23 Aug 06:25:39 06:30:20 42° 283° (WNW) 06:35:03 435.120 FM
AO-7 23 Aug 06:35:38 06:43:36 54° 286° (WNW) 06:51:37 29.400 - 29.500 MHz
SO-50 23 Aug 06:35:41 06:38:42 18° 292° (WNW) 06:41:44 436.795 FM
Sapphire 23 Aug 06:37:21 06:42:37 55° 71° (ENE) 06:47:54 437.095 MHz 1200 baud AX-25 AFSK
Hamsat 23 Aug 06:53:28 06:56:36 20° 101° (ESE) 06:59:43 145.90 MHz
PCSat 23 Aug 07:07:43 07:13:01 59° 251° (WSW) 07:18:19 145.825 MHz
STRAND 1 23 Aug 07:30:36 07:33:43 16° 77° (ENE) 07:36:50 ?
UOSAT-12 23 Aug 07:42:14 07:46:39 68° 292° (WNW) 07:51:10 437.025 FM, 437.400 FM
JAS-2 23 Aug 07:44:28 07:49:54 83° 103° (ESE) 07:56:02 435.800 - 435.900 CW/SSB, 435.910 FM
RS-15 23 Aug 08:20:35 08:31:26 44° 112° (ESE) 08:41:45 29.354 - 29.394 USB, Beacon 29.352 USB
Hamsat 23 Aug 08:29:33 08:32:17 17° 282° (WNW) 08:35:01 145.90 MHz
SO-67 23 Aug 09:00:17 09:03:38 53° 281° (W) 09:07:01 435.3500 MHz FM
STRAND 1 23 Aug 09:08:12 09:12:38 30° 257° (WSW) 09:17:03 ?
HO-68 23 Aug 10:00:47 10:07:06 34° 105° (ESE) 10:13:25 435.675 MHz FM
RS-15 23 Aug 10:33:39 10:43:19 32° 291° (WNW) 10:52:44 29.354 - 29.394 USB, Beacon 29.352 USB
UKube-1 23 Aug 11:11:26 11:15:45 75° 282° (WNW) 11:20:06 145.840 MHz, 145.915 MHz
